Regional Weather Roundup
Issued by NWS Glasgow, MT

Home | Current Version | Previous Version | Text Only | Print | Product List | Glossary On
Versions: 1 2 3 4 5 6 7 8 9 10 11 12 13 14 15 16 17 18 19 20 21 22 23 24 25 26 27 28 29 30 31 32 33 34 35 36 37 38 39 40 41 42 43 44 45 46 47 48 49 50
000
ASUS45 KGGW 231615
RWRGGW
HOURLY REGIONAL WEATHER ROUNDUP FOR NORTHEAST MONTANA
NATIONAL WEATHER SERVICE GLASGOW MONTANA
1000 AM MDT SUN APR 23 2017

NOTE: "FAIR" INDICATES FEW OR NO CLOUDS BELOW 12,000 FEET WITH NO
SIGNIFICANT WEATHER AND/OR OBSTRUCTIONS TO VISISBILITY.

NORTHEAST MONTANA


CITY           SKY/WX    TMP DP  RH WIND       PRES   REMARKS
GLASGOW        CLOUDY    36  31  82 E18       29.88F
PLENTYWOOD       N/A     31  26  82 SE12G20     N/A
WOLF POINT     CLOUDY    38  32  79 E15       29.93F
JORDAN           N/A     41  37  86 SE14      29.83F
WINNETT          N/A     50  42  74 E3G12       N/A
SIDNEY         CLOUDY    36  30  79 SE18      29.96F
GLENDIVE       CLOUDY    36  32  85 E15       29.91F
MALTA            N/A     39  35  86 E8G18       N/A
SCOBEY           N/A     28  21  74 E13G20    29.94F HAZE

FORT PECK REPORTS


CITY           SKY/WX    TMP DP  RH WIND       PRES   REMARKS
FORT PECK        N/A     38  35  89 E24G32      N/A

SOUTHEAST MONTANA


CITY           SKY/WX    TMP DP  RH WIND       PRES   REMARKS
BILLINGS       CLOUDY    48  41  76 S7        29.76F
MILES CITY     CLOUDY    43  38  82 NE13      29.83F
BAKER          CLOUDY    34  32  92 E17       29.88F FOG
LIVINGSTON     CLOUDY    48  36  63 S24G32    29.79R

CENTRAL MONTANA


CITY           SKY/WX    TMP DP  RH WIND       PRES   REMARKS
HAVRE          CLOUDY    43  38  82 E21       29.79F
LEWISTOWN      MOSUNNY   53  37  54 NE5       29.75F
GREAT FALLS    LGT RAIN  43  40  89 W8        29.79S
CUT BANK       CLOUDY    41  41 100 S6        29.78F
HELENA         CLOUDY    46  39  76 N7        29.78F
BUTTE          CLOUDY    47  30  51 VRB5      29.81S
BOZEMAN        CLOUDY    51  38  60 SE6       29.79F

WESTERN MONTANA


CITY           SKY/WX    TMP DP  RH WIND       PRES   REMARKS
MISSOULA       LGT RAIN  43  40  89 NW12      29.86F
KALISPELL      NOT AVBL

NORTH DAKOTA


CITY           SKY/WX    TMP DP  RH WIND       PRES   REMARKS
WILLISTON      CLOUDY    31  24  75 SE15      30.01F
DICKINSON      CLOUDY    30  26  85 E20       29.92F
MINOT          LGT SNOW  29  26  89 E17       30.09F VSB 3/4
BISMARCK       CLOUDY    37  31  78 E25G31    30.01F

SOUTHERN SASKATCHEWAN


CITY           SKY/WX    TMP DP  RH WIND       PRES   REMARKS
REGINA         CLOUDY    34  21  60 SE21G28   30.06F
ESTEVAN        CLOUDY    30  16  55 E18G32    30.07F
SWIFT CURRENT  CLOUDY    34  30  86 SE21G35   29.87F




USA.gov is the U.S. government's official web portal to all federal, state and local government web resources and services.